This demonstration page uses our WeatherBlox Daily Observations layout. Learn more.

Left ArrowRight Arrow

36.19886, -115.1175

Hourly Observations for May 6, 2020

Temp ( °F °C ) Dew Point ( °F °C ) Humidity (%) Winds ( mph kmh ) Pressure ( in mb ) Visibility ( mi km ) Precip ( " mm )
12:53 am 00:53 Clear 72 22.2 25 -3.9 17 17 WNW 5 7 29.95 1014 10 16 N/A
1:53 am 01:53 Clear 70 21.1 26 -3.3 19 19 NW 5 7 29.93 1014 10 16 N/A
2:53 am 02:53 Clear 70 21.1 26 -3.3 19 19 NW 7 11 29.93 1013 10 16 N/A
3:53 am 03:53 Clear 70 21.1 26 -3.3 19 19 W 3 6 29.93 1014 10 16 N/A
4:53 am 04:53 Clear 67 19.4 26 -3.3 21 21 NNW 6 9 29.93 1014 10 16 N/A
5:53 am 05:53 Sunny 67 19.4 25 -3.9 20 20 WNW 6 9 29.93 1014 10 16 N/A
6:53 am 06:53 Sunny 69 20.6 26 -3.3 20 20 W 6 9 29.95 1014 10 16 N/A
7:53 am 07:53 Sunny 77 25 28 -2.2 16 16 N N/A 29.96 1015 10 16 N/A
8:53 am 08:53 Sunny 80 26.7 21 -6.1 11 11 N N/A 29.96 1015 10 16 N/A
9:53 am 09:53 Sunny 84 28.9 19 -7.2 9 9 E 5 7 29.96 1015 10 16 N/A
10:53 am 10:53 Sunny 88 31.1 21 -6.1 8 8 E 5 7 29.95 1014 10 16 N/A
11:53 am 11:53 Sunny 89 31.7 24 -4.4 9 9 N N/A 29.93 1014 10 16 N/A
12:53 pm 12:53 Sunny 93 33.9 25 -3.9 8 8 N N/A 29.91 1013 10 16 N/A
1:53 pm 13:53 Sunny 96 35.6 25 -3.9 8 8 VRB 3 6 29.88 1012 10 16 N/A
2:53 pm 14:53 Sunny 99 37.2 24 -4.4 7 7 NW 9 15 29.85 1011 10 16 N/A
3:53 pm 15:53 Sunny 98 36.7 22 -5.6 6 6 N 10 17 29.84 1011 10 16 N/A
4:53 pm 16:53 Sunny 98 36.7 17 -8.3 5 5 NW 12 19 29.84 1010 10 16 N/A
5:53 pm 17:53 Sunny 98 36.7 17 -8.3 5 5 NNW 8 13 29.83 1010 10 16 N/A
6:53 pm 18:53 Sunny 97 36.1 16 -8.9 5 5 NNW 9 15 29.82 1010 10 16 N/A
7:53 pm 19:53 Clear 92 33.3 12 -11.1 5 5 NW 8 13 29.83 1010 10 16 N/A
8:53 pm 20:53 Clear 88 31.1 14 -10 6 6 WNW 9 15 29.85 1011 10 16 N/A
9:53 pm 21:53 Clear 84 28.9 19 -7.2 9 9 WNW 6 9 29.87 1011 10 16 N/A
10:53 pm 22:53 Clear 83 28.3 20 -6.7 10 10 N N/A 29.87 1012 10 16 N/A
11:53 pm 23:53 Clear 84 28.9 11 -11.7 6 6 NNW 13 20 29.86 1011 10 16 N/A

Powered by AerisWeather